logo
Games tagged Pirates
# Game Release date
Price
Score rank
(Userscore / Metascore)
Owners
Players
Playtime (Median)
Developer(s)
Publisher(s)
1 Return of the Obra Dinn Oct 18, 2018 $19.99N/A (N/A/89%)200,000 .. 500,0006.67%03:10 (02:06)Lucas Pope3909
2 The Curse of Monkey Island Oct 31, 1997 $6.99N/A (N/A/89%)100,000 .. 200,0000%00:00 (00:00)LucasArtsLucasArts, Lucasfilm, Disney
3 Pillars of Eternity II: Deadfire May 8, 2018 $39.99N/A (N/A/88%)500,000 .. 1,000,0000%00:00 (00:00)Obsidian EntertainmentVersus Evil, Obsidian Entertainment
4 Sid Meier's Pirates! Jul 11, 2005 $9.99N/A (N/A/88%)500,000 .. 1,000,0000%00:00 (00:00)Firaxis Games2K
5 Monkey Island 2 Special Edition: LeChuck’s Revenge Jul 7, 2010 $9.99N/A (N/A/87%)200,000 .. 500,0000%00:00 (00:00)LucasArtsLucasArts, Lucasfilm, Disney
6 Sins of a Solar Empire: Trinity Nov 16, 2011 $19.99N/A (N/A/87%)100,000 .. 200,0000%00:00 (00:00)Ironclad Games, Stardock EntertainmentStardock Entertainment
7 The Secret of Monkey Island: Special Edition Jul 15, 2009 $9.99N/A (N/A/86%)500,000 .. 1,000,0000%00:00 (00:00)LucasArtsLucasArts, Lucasfilm, Disney
8 Escape from Monkey Island Nov 16, 2018 $6.99N/A (N/A/86%)20,000 .. 50,0000%00:00 (00:00)LucasArtsLucasfilm, Disney
9 Sins of a Solar Empire: Rebellion Jun 12, 2012 $39.99N/A (N/A/82%)2,000,000 .. 5,000,0000.29%02:19 (00:46)Ironclad Games, Stardock EntertainmentStardock Entertainment
10 Nelly Cootalot: The Fowl Fleet Mar 22, 2016 $19.99N/A (N/A/81%)20,000 .. 50,0000%00:00 (00:00)Alasdair Beckett-King, Application Systems HeidelbergApplication Systems Heidelberg
11 Hero-U: Rogue to Redemption Jul 10, 2018 $29.99N/A (N/A/80%)20,000 .. 50,0000%00:00 (00:00)Transolar GamesTransolar Games
12 Flinthook Apr 18, 2017 $14.99N/A (N/A/80%)100,000 .. 200,0000%00:00 (00:00)Tribute Games Inc.Tribute Games Inc.
13 ArcheAge Mar 26, 2015 FreeN/A (N/A/80%)1,000,000 .. 2,000,0000%00:00 (00:00)XLGAMESTrion Worlds
14 Time Commando Jul 31, 1996 $5.99N/A (N/A/80%)500,000 .. 1,000,0000%00:00 (00:00)[2.21][2.21]
15 Nelly Cootalot: Spoonbeaks Ahoy! HD May 22, 2019 $1.99N/A (N/A/80%)20,000 .. 50,0000%00:00 (00:00)Alasdair Beckett-King, Application Systems HeidelbergApplication Systems Heidelberg
16 Tales of Monkey Island: Complete Season Jul 7, 2009 $14.99N/A (N/A/79%)200,000 .. 500,0000%00:00 (00:00)TelltaleTelltale
17 Gothic II: Gold Edition Nov 29, 2005 $9.99N/A (N/A/79%)500,000 .. 1,000,0001.47%02:32 (00:50)Piranha BytesTHQ Nordic
18 Pirates Outlaws Apr 13, 2020 $13.99N/A (N/A/79%)20,000 .. 50,0000%00:00 (00:00)Fabled GameFabled Game
19 Port Royale 2 Jun 16, 2009 $4.99N/A (N/A/75%)50,000 .. 100,0000%00:00 (00:00)Ascaron Entertainment ltd.Strategy First
20 Nantucket Jan 18, 2018 $6.11N/A (N/A/74%)50,000 .. 100,0000%00:00 (00:00)Picaresque StudioFish Eagle
21 Assassin’s Creed Rogue Mar 9, 2015 $19.99N/A (N/A/74%)500,000 .. 1,000,0001.79%00:06 (00:02)Ubisoft Sofia, Ubisoft KievUbisoft
22 Space Pirates and Zombies Aug 15, 2011 $9.99N/A (N/A/74%)500,000 .. 1,000,0000%00:00 (00:00)MinMax Games Ltd.MinMax Games Ltd.
23 Jolly Rover Jun 7, 2010 $9.99N/A (N/A/71%)100,000 .. 200,0000%00:00 (00:00)BrawsomeBrawsome
24 Sea Dogs Nov 25, 2000 $11.99N/A (N/A/71%)50,000 .. 100,0000%00:00 (00:00)AkellaAkella
25 Willy Morgan and the Curse of Bone Town Aug 11, 2020 $19.99N/A (N/A/71%)0 .. 20,0000%00:00 (00:00)imaginarylabLeonardo Interactive, WhisperGames
26 Battlewake Sep 10, 2019 $29.99N/A (N/A/70%)0 .. 20,0000%00:00 (00:00)SurviosSurvios
27 Risen 2: Dark Waters Apr 26, 2012 $9.99N/A (N/A/69%)1,000,000 .. 2,000,0000%00:00 (00:00)Piranha BytesTHQ Nordic
28 Here Be Dragons Aug 16, 2019 $5.99N/A (N/A/69%)0 .. 20,0000%00:00 (00:00)Red Zero GamesRed Zero Games
29 Commander: Conquest of the Americas Jul 30, 2010 $9.99N/A (N/A/68%)50,000 .. 100,0000%00:00 (00:00)Nitro GamesNitro Games
30 Port Royale 4 Sep 25, 2020 $39.99N/A (N/A/68%)20,000 .. 50,0000%00:00 (00:00)Gaming MindsKalypso Media
31 East India Company Jul 31, 2009 $9.99N/A (N/A/67%)50,000 .. 100,0000%00:00 (00:00)Nitro GamesNitro Games
32 Ghost Pirates of Vooju Island Jan 27, 2015 $9.99N/A (N/A/66%)0 .. 20,0000%00:00 (00:00)Autumn MoonViva Media
33 Risen 3 - Titan Lords Aug 12, 2014 $14.99N/A (N/A/65%)500,000 .. 1,000,0000%00:00 (00:00)Piranha BytesTHQ Nordic
34 The Guild II - Pirates of the European Seas Jun 24, 2010 $9.99N/A (N/A/63%)200,000 .. 500,0000%00:00 (00:00)4HEAD StudiosTHQ Nordic
35 Sea Dogs: City of Abandoned Ships May 12, 2009 $7.99N/A (N/A/61%)0 .. 20,0000%00:00 (00:00)AkellaAkella
36 Windward May 12, 2015 $9.99N/A (N/A/61%)200,000 .. 500,0000%00:00 (00:00)Tasharen Entertainment Inc.Tasharen Entertainment Inc.
37 Tempest: Pirate Action RPG Aug 22, 2016 $14.99N/A (N/A/60%)100,000 .. 200,0000%00:00 (00:00)Lion's ShadeHeroCraft PC
38 Pirates of Black Cove Aug 2, 2011 $9.99N/A (N/A/56%)50,000 .. 100,0000%00:00 (00:00)Nitro Games
39 Uncharted Waters Online Dec 19, 2018 FreeN/A (N/A)50,000 .. 100,0000%00:00 (00:00)KOEI TECMO GAMES CO., LTD.Papaya Play
40 Puzzle Plunder Oct 9, 2018 FreeN/A (N/A)20,000 .. 50,0000%00:00 (00:00)WindybeardWindybeard
41 Unearned Bounty Aug 22, 2018 FreeN/A (N/A)100,000 .. 200,0000%00:00 (00:00)Extrokold GamesExtrokold Games
42 Crooked Waters Jul 13, 2018 FreeN/A (N/A)0 .. 20,0000%00:00 (00:00)Craft Game StudioCraft Game Studio
43 Puzzle Pirates: Dark Seas Jul 6, 2018 FreeN/A (N/A)100,000 .. 200,0000%00:00 (00:00)Grey Havens, LLCGrey Havens, LLC
44 The Pirates of Sector 7 Jun 1, 2018 FreeN/A (N/A)0 .. 20,0000%00:00 (00:00)Kneeling Bean StudiosLegacy Gameworks
45 League of Pirates Mar 13, 2018 N/AN/A (N/A)20,000 .. 50,0000%00:00 (00:00)upjersupjers
46 The Pirate: Plague of the Dead Oct 13, 2017 FreeN/A (N/A)100,000 .. 200,0000%00:00 (00:00)Home Net GamesHome Net Games
47 BATTLECREW Space Pirates Jul 10, 2017 FreeN/A (N/A)100,000 .. 200,0000%00:00 (00:00)DONTNOD ELEVENDONTNOD ELEVEN
48 Son Korsan May 30, 2017 FreeN/A (N/A)50,000 .. 100,0000%00:00 (00:00)Consala GamesConsala Games
49 Worlds Adrift May 24, 2017 N/AN/A (N/A)100,000 .. 200,0000%00:00 (00:00)Bossa StudiosBossa Studios
50 Man O' War: Corsair - Warhammer Naval Battles Apr 19, 2017 N/AN/A (N/A)20,000 .. 50,0000%00:00 (00:00)Evil Twin ArtworksEvil Twin Artworks
51 The Pirate: Caribbean Hunt Aug 24, 2016 FreeN/A (N/A)500,000 .. 1,000,0000%00:00 (00:00)Home Net GamesHome Net Games
52 Puzzle Pirates Aug 31, 2011 FreeN/A (N/A)200,000 .. 500,0000%00:00 (00:00)Grey Havens, LLCGrey Havens, LLC
53 Pirates, Vikings, and Knights II Feb 12, 2010 FreeN/A (N/A)1,000,000 .. 2,000,0000%00:00 (00:00)Octoshark StudiosOctoshark Studios
54 Age of Booty Mar 9, 2009 N/AN/A (N/A)20,000 .. 50,0000%00:00 (00:00)Certain Affinity™Capcom
55 Tradewinds Classics Nov 5, 2004 N/AN/A (N/A)0 .. 20,0000%00:00 (00:00)Sandlot GamesSandlot Games
56 Sid Meier's Pirates! Gold Plus (Classic) Jan 1, 1987 $6.99N/A (N/A)20,000 .. 50,0000%00:00 (00:00)MicroProse Software, IncRetroism, Nightdive Studios
57 IWOCon 2021 Mar 26, 2021 FreeN/A (N/A)20,000 .. 50,0000%00:00 (00:00)Indie World OrderIndie World Order
58 Save the Pirate: Sea Story Feb 25, 2021 FreeN/A (N/A)0 .. 20,0000%00:00 (00:00)MaurisMauris
59 Batterneers Dec 1, 2020 FreeN/A (N/A)0 .. 20,0000%00:00 (00:00)Batterneers DevBatterneers Dev
60 Tribal Wars Nov 12, 2020 FreeN/A (N/A)50,000 .. 100,0000%00:00 (00:00)InnoGamesInnoGames
61 Chaos Combat Chess Oct 20, 2020 N/AN/A (N/A)20,000 .. 50,0000%00:00 (00:00)This Game StudioRogue Games, Inc.
62 Turtle's Quest Aug 26, 2020 FreeN/A (N/A)20,000 .. 50,0000%00:00 (00:00)Kid's RevoltKid's Revolt
63 Penny's Path Jul 24, 2020 FreeN/A (N/A)0 .. 20,0000%00:00 (00:00)Strategic Thinking LLCStrategic Thinking LLC
64 Paper Pirates Feb 28, 2020 $2.69N/A (N/A)0 .. 20,0000%00:00 (00:00)Iteration GamesIteration Games
65 Maelstrom Sep 20, 2019 FreeN/A (N/A)200,000 .. 500,0000%00:00 (00:00)Gunpowder Games, Inc.Double Jump Publishing
66 Dandy & Randy Sep 2, 2019 N/AN/A (N/A)0 .. 20,0000%00:00 (00:00)Asteristic Game StudioAsteristic Game Studio
67 Privateers Apr 18, 2019 $9.99N/A (N/A)0 .. 20,0000%00:00 (00:00)Monster TreeMonster Tree
68 Shipped Mar 28, 2019 $5.99N/A (N/A)20,000 .. 50,0000%00:00 (00:00)MajorariattoMajorariatto
69 Sticks And Bones Mar 28, 2019 $5.99N/A (N/A)0 .. 20,0000%00:00 (00:00)Mohammad ArkobiMohammad Arkobi
70 ONE PIECE World Seeker Mar 14, 2019 $59.99N/A (N/A)100,000 .. 200,0000%00:00 (00:00)GANBARION Co., Ltd.BANDAI NAMCO Entertainment
71 Match Three Pirates! Heir to Davy Jones Apr 19, 2019 $9.99N/A (N/A)0 .. 20,0000%00:00 (00:00)Graphium StudioDenda Games
72 Block of Rum Feb 5, 2019 $1.99N/A (N/A)0 .. 20,0000%00:00 (00:00)Obi-WanyaObi-Wanya
73 ATLAS Dec 22, 2018 $29.99N/A (N/A)1,000,000 .. 2,000,0000%00:00 (00:00)Grapeshot Games, Instinct GamesGrapeshot Games
74 kraken's curse Jan 17, 2020 $2.99N/A (N/A)0 .. 20,0000%00:00 (00:00)Sokpop CollectiveSokpop Collective
75 Heart of Moon : The Mask of Seasons Dec 6, 2018 $5.99N/A (N/A)0 .. 20,0000%00:00 (00:00)UnikgameUnikware
76 Pirates of the Polygon Sea Nov 30, 2018 $8.99N/A (N/A)0 .. 20,0000%00:00 (00:00)Praxia EntertainmentPraxia Entertainment
77 Swords and Sandals Pirates Nov 30, 2018 $6.99N/A (N/A)0 .. 20,0000%00:00 (00:00)Whiskeybarrel StudioseGames.com
78 Pirate Island Rescue Sep 17, 2018 $2.99N/A (N/A)20,000 .. 50,0000%00:00 (00:00)Bad Logic StudiosBad Logic Studios
79 Ink Plane Sep 16, 2018 $0.99N/A (N/A)0 .. 20,0000%00:00 (00:00)Artur PetrovArtur Petrov
80 Salty Seabird Bay Sep 11, 2018 $5.99N/A (N/A)0 .. 20,0000%00:00 (00:00)ZealwindZealwind
81 Flynn and Freckles Sep 7, 2018 $9.99N/A (N/A)0 .. 20,0000%00:00 (00:00)Rookie Hero GamesRookie Hero Games
82 Factory pirates Aug 24, 2018 $3.99N/A (N/A)0 .. 20,0000%00:00 (00:00)WhackAKey GamesBig Black Bear
83 Space Captain McCallery - Episode 1: Crash Landing Jul 20, 2018 $4.99N/A (N/A)20,000 .. 50,0000%00:00 (00:00)Renegade Sector GamesRenegade Sector Games
84 Adventure Time: Pirates of the Enchiridion Jul 17, 2018 $19.99N/A (N/A)0 .. 20,0000%00:00 (00:00)Climax StudiosOutright Games Ltd.
85 SAS Jun 6, 2018 $14.99N/A (N/A)20,000 .. 50,0000%00:00 (00:00)True Illusion SoftwareTrue Illusion Software
86 Cursed Lands May 18, 2018 $24.99N/A (N/A)0 .. 20,0000%00:00 (00:00)Winter WolvesWinter Wolves
87 Virtual Pirate VR May 11, 2018 $9.99N/A (N/A)0 .. 20,0000%00:00 (00:00)MAMMOSSIX Co., Ltd.MAMMOSSIX Co., Ltd.
88 Pirate Code Apr 24, 2018 $14.99N/A (N/A)0 .. 20,0000%00:00 (00:00)Circuit HiveCircuit Hive
89 Don't Sink Apr 13, 2018 $9.99N/A (N/A)20,000 .. 50,0000%00:00 (00:00)Sebastian Nigro, Christopher Anselmo, Daniel MarquesStudio Eris
90 HYKEE - Episode 1: Underwater Apr 13, 2018 $0.99N/A (N/A)0 .. 20,0000%00:00 (00:00)NachoNacho
91 Levantera: Tale of The Winds Apr 2, 2018 $9.99N/A (N/A)0 .. 20,0000%00:00 (00:00)Lasso Games, LLCLasso Games, LLC
92 The Pirate's Fate Mar 27, 2018 $19.99N/A (N/A)0 .. 20,0000%00:00 (00:00)T.F. Wright, VolkenfoxFoxWright Productions
93 Sea Dogs: Caribbean Tales Sep 12, 2006 $11.99N/A (N/A)0 .. 20,0000%00:00 (00:00)AkellaAkella
94 Salt Feb 6, 2018 $14.99N/A (N/A)50,000 .. 100,0000%00:00 (00:00)Lavaboots StudiosLavaboots Studios
95 VR Regatta - The Sailing Game Jan 30, 2018 $29.99N/A (N/A)100,000 .. 200,0000%00:00 (00:00)MarineVerseMarineVerse
96 Shadowhand: RPG Card Game Dec 7, 2017 $3.74N/A (N/A)20,000 .. 50,0000%00:00 (00:00)Grey Alien GamesPositech Games
97 Space Pirates And Zombies 2 Nov 7, 2017 $19.99N/A (N/A)200,000 .. 500,0000%00:00 (00:00)MinMax Games Ltd.MinMax Games Ltd.
98 Mutiny!! Oct 20, 2017 $9.99N/A (N/A)0 .. 20,0000%00:00 (00:00)LupiesoftLupiesoft, MangaGamer
99 Space Pirate Trainer Oct 12, 2017 $14.99N/A (N/A)100,000 .. 200,0000%00:00 (00:00)I-IllusionsI-Illusions
100 Captain vs Sky Pirates Oct 10, 2017 $2.99N/A (N/A)50,000 .. 100,0000%00:00 (00:00)Boogygames StudiosBoogygames Studios
101 Captain Firebeard and the Bay of Crows Oct 4, 2017 $9.99N/A (N/A)0 .. 20,0000%00:00 (00:00)Sapphire Dragon ProductionsSapphire Dragon Productions
102 战术狂想1(Chimera of Tactics 1) Sep 27, 2017 $0.99N/A (N/A)0 .. 20,0000%00:00 (00:00)自由愉悦小黄猫(Free pleasure little yellow cat)自由愉悦小黄猫(Free pleasure little yellow cat)
103 Battle of Frigates Sep 21, 2017 $2.99N/A (N/A)20,000 .. 50,0000%00:00 (00:00)Dmitriy Uvarov, Vyacheslav ShilikhinDroid Riot
104 The Caribbean Sail Sep 19, 2017 $14.99N/A (N/A)0 .. 20,0000%00:00 (00:00)Victorian ClambakeVictorian Clambake
105 Captain Backwater Sep 12, 2017 $6.29N/A (N/A)0 .. 20,0000%00:00 (00:00)IntermediawareIntermediaware
106 One Piece: Unlimited World Red - Deluxe Edition Aug 25, 2017 $39.99N/A (N/A)0 .. 20,0000%00:00 (00:00)GanbarionBANDAI NAMCO Entertainment
107 Cutthroat Gunboat Aug 11, 2017 $1.99N/A (N/A)0 .. 20,0000%00:00 (00:00)Minor FactionMinor Faction
108 The Zwuggels - A Beach Holiday Adventure for Kids Jul 20, 2017 $2.99N/A (N/A)0 .. 20,0000%00:00 (00:00)Ploosh GmbHPloosh GmbH
109 Robot Pirates Jun 9, 2017 $1.99N/A (N/A)0 .. 20,0000%00:00 (00:00)Tydecon GamesTydecon Games
110 Lone Pirate VR May 26, 2017 $0.99N/A (N/A)0 .. 20,0000%00:00 (00:00)b08b08
111 Landless May 10, 2017 $14.99N/A (N/A)0 .. 20,0000%00:00 (00:00)CodeBulletCodeBullet
112 Neighboring Islands Apr 30, 2017 $0.99N/A (N/A)20,000 .. 50,0000%00:00 (00:00)Angry gamesAngry games
113 Space Station Loma: OPERATIONS Mar 17, 2017 $13.99N/A (N/A)0 .. 20,0000%00:00 (00:00)SpielmannSpiel, bisonSpielmannSpiel
114 Winds Of Trade Feb 13, 2017 $11.99N/A (N/A)0 .. 20,0000%00:00 (00:00)Hermes InteractiveHermes Interactive
115 HoD: On open seas Dec 24, 2016 $0.99N/A (N/A)0 .. 20,0000%00:00 (00:00)Pirate goup mediaPirate group media
116 Heroes of the Seven Seas VR Oct 14, 2016 $6.99N/A (N/A)0 .. 20,0000%00:00 (00:00)Mirage Interactive, 北京魔视互动科技有限公司Mirage Interactive, 北京魔视互动科技有限公司
117 Smash Up Oct 12, 2016 $3.49N/A (N/A)0 .. 20,0000%00:00 (00:00)Nomad GamesNomad Games
118 Duke Grabowski, Mighty Swashbuckler Oct 6, 2016 $1.99N/A (N/A)20,000 .. 50,0000%00:00 (00:00)Venture Moon IndustriesAlliance Digital Media
119 One Piece Burning Blood Sep 1, 2016 $49.99N/A (N/A)100,000 .. 200,0000%00:00 (00:00)Spike Chunsoft Co., Ltd.BANDAI NAMCO Entertainment
120 Archipelago Aug 17, 2016 $0.99N/A (N/A)0 .. 20,0000%00:00 (00:00)TortTort
121 The Last Leviathan Jun 22, 2016 $9.99N/A (N/A)50,000 .. 100,0000%00:00 (00:00)Super Punk GamesSuper Punk Games
122 V ARRR Jun 10, 2016 $9.99N/A (N/A)0 .. 20,0000%00:00 (00:00)Blackjard SoftworksBlackjard Softworks
123 Choice of the Pirate May 20, 2016 $3.99N/A (N/A)0 .. 20,0000%00:00 (00:00)Choice of GamesChoice of Games
124 Skyhook May 17, 2016 $4.99N/A (N/A)0 .. 20,0000%00:00 (00:00)Megastorm GamesMegastorm Games
125 Assassins vs Pirates May 10, 2016 $7.99N/A (N/A)0 .. 20,0000%00:00 (00:00)DEADBITDEADBIT
126 Pixel Survivors May 5, 2016 $3.99N/A (N/A)50,000 .. 100,0000%00:00 (00:00)PatagoniartPatagoniart
127 The Inner Sea Mar 30, 2016 $11.99N/A (N/A)0 .. 20,0000%00:00 (00:00)dsquaredsquare
128 Blood and Gold: Caribbean! Dec 10, 2015 $19.99N/A (N/A)50,000 .. 100,0000%00:00 (00:00)Snowbird GamesSnowbird Games
129 Astrox: Hostile Space Excavation Nov 30, 2015 $9.99N/A (N/A)50,000 .. 100,0000%00:00 (00:00)Jace MasulaJace Masula
130 Vendetta - Curse of Raven's Cry Nov 20, 2015 $29.99N/A (N/A)200,000 .. 500,0000%00:00 (00:00)Reality Pump StudiosTopWare Interactive, ACE
131 Caribbean Odyssey Nov 12, 2015 $9.99N/A (N/A)0 .. 20,0000%00:00 (00:00)Imran ArafatReality Gameware
132 VROOM: Galleon Sep 5, 2016 $6.99N/A (N/A)0 .. 20,0000%00:00 (00:00)VROOMVROOM
133 Swords & Crossbones: An Epic Pirate Story Sep 30, 2015 $4.99N/A (N/A)0 .. 20,0000%00:00 (00:00)Epic Devs LLCEpic Devs LLC
134 Black Sails - The Ghost Ship Sep 17, 2015 $9.99N/A (N/A)50,000 .. 100,0000%00:00 (00:00)Deck13Deck13
135 Braveland Pirate Sep 14, 2015 $9.99N/A (N/A)20,000 .. 50,0000%00:00 (00:00)Tortuga TeamTortuga Team
136 One Piece Pirate Warriors 3 Aug 27, 2015 $39.99N/A (N/A)500,000 .. 1,000,0000%00:00 (00:00)KOEI TECMO GAMES CO., LTD.BANDAI NAMCO Entertainment
137 Shantae and the Pirate's Curse Apr 23, 2015 $19.99N/A (N/A)100,000 .. 200,0000%00:00 (00:00)WayForwardWayForward
138 Pirate's Life Apr 17, 2015 $4.99N/A (N/A)0 .. 20,0000%00:00 (00:00)Team EyepatchNone
139 Distant Star: Revenant Fleet Apr 7, 2015 $9.99N/A (N/A)50,000 .. 100,0000%00:00 (00:00)Blazing GriffinBlazing Griffin
140 Hero of the Kingdom II Feb 20, 2015 $7.99N/A (N/A)100,000 .. 200,0000%00:00 (00:00)Lonely TroopsLonely Troops
141 Robinson Crusoe and the Cursed Pirates Feb 10, 2015 $9.99N/A (N/A)20,000 .. 50,0000%00:00 (00:00)MagicIndieMumboJumbo
142 Forsaken Isle Feb 6, 2015 $7.99N/A (N/A)20,000 .. 50,0000%00:00 (00:00)SmoodlezSmoodlez
143 Pirate Hell Nov 7, 2014 $5.99N/A (N/A)20,000 .. 50,0000%00:00 (00:00)Sascha HartlebSascha Hartleb
144 Pixel Piracy Jul 31, 2014 $9.99N/A (N/A)200,000 .. 500,0000%00:00 (00:00)Vitali Kirpu
145 Heileen 3: New Horizons Jul 17, 2014 $24.99N/A (N/A)0 .. 20,0000%00:00 (00:00)Winter WolvesWinter Wolves
146 Nightmares from the Deep 3: Davy Jones Jan 29, 2015 $9.99N/A (N/A)50,000 .. 100,0000%00:00 (00:00)Artifex MundiArtifex Mundi
147 Assassin's Creed Freedom Cry Feb 25, 2014 $14.99N/A (N/A)200,000 .. 500,0000%00:00 (00:00)Ubisoft MontrealUbisoft
148 Dead Man's Draw Feb 6, 2014 $3.49N/A (N/A)50,000 .. 100,0000%00:00 (00:00)Stardock EntertainmentStardock Entertainment
149 Nightmares from the Deep: The Cursed Heart Feb 5, 2014 $9.99N/A (N/A)100,000 .. 200,0000%00:00 (00:00)Artifex MundiArtifex Mundi
150 Captain Morgane and the Golden Turtle Jan 3, 2014 $4.99N/A (N/A)20,000 .. 50,0000%00:00 (00:00)WizarBoxReef Entertainment
151 Nightmares from the Deep 2: The Siren`s Call May 15, 2014 $9.99N/A (N/A)50,000 .. 100,0000%00:00 (00:00)Artifex MundiArtifex Mundi
152 Pirates vs Corsairs: Davy Jones's Gold Mar 16, 2015 $4.99N/A (N/A)20,000 .. 50,0000%00:00 (00:00)Little World StudioGames For All
153 Sea Dogs: To Each His Own - Pirate Open World RPG Dec 2012 $14.99N/A (N/A)50,000 .. 100,0000%00:00 (00:00)BlackMark StudioAkella, Valkyrie Initiative
154 Port Royale 3 May 4, 2012 $14.99N/A (N/A)100,000 .. 200,0000%00:00 (00:00)Gaming Minds StudiosKalypso Media Digital
155 Woody Two-Legs: Attack of the Zombie Pirates Nov 2, 2010 $4.99N/A (N/A)20,000 .. 50,0000%00:00 (00:00)Nitro GamesNitro Games
156 Zombie Pirates Apr 20, 2011 $1.49N/A (N/A)0 .. 20,0000%00:00 (00:00)Dust Devil Studios Inc.Strategy First
157 Tropico Reloaded Jul 26, 2009 $6.99N/A (N/A)200,000 .. 500,0000%00:00 (00:00)PopTop Software, BreakAway Games, Frog City SoftwareKalypso Media Digital
158 Disney Pirates of the Caribbean: At Worlds End May 22, 2007 $19.99N/A (N/A)20,000 .. 50,0000%00:00 (00:00) Eurocom Entertainment SoftwareDisney
159 Disney's Treasure Planet: Battle of Procyon Feb 24, 2015 $9.99N/A (N/A)20,000 .. 50,0000%00:00 (00:00)Barking Dog StudiosDisney
160 El Tesoro de Isla Alcachofa Aug 8, 2000 $11.99N/A (N/A)20,000 .. 50,0000%00:00 (00:00)Alcachofa SoftErbe Software
161 Sea Legends Oct 2, 2020 $6.99N/A (N/A)20,000 .. 50,0000%00:00 (00:00)Mir Dialogue, OceanZiggurat
162 Assassin’s Creed IV Black Flag $39.99N/A (N/A)2,000,000 .. 5,000,0000.73%00:01 (00:00)Ubisoft MontrealUbisoft
163 Coin Treasures Oct 17, 2021 $5.99N/A (N/A)0 .. 20,0000%00:00 (00:00)RBrothersRBrothers
164 Maritime Calling Sep 28, 2021 $14.99N/A (N/A)0 .. 20,0000%00:00 (00:00)Tiamat GamesTiamat Games
165 Peachleaf Pirates Sep 27, 2021 $6.99N/A (N/A)0 .. 20,0000%00:00 (00:00)Dog Kiss StudioDigerati
166 Plunder Panic Sep 17, 2021 $9.99N/A (N/A)0 .. 20,0000%00:00 (00:00)Will Winn GamesWill Winn Games
167 100 hidden cups Sep 15, 2021 $0.99N/A (N/A)0 .. 20,0000%00:00 (00:00)Anatoliy Loginovskikh, Igor ShalimovAnatoliy Loginovskikh
168 Table of Tales: The Crooked Crown Sep 14, 2021 $17.49N/A (N/A)0 .. 20,0000%00:00 (00:00)Tin Man Games, Zero One StudioTin Man Games
169 In Search of Fon Vitae Aug 30, 2021 $4.99N/A (N/A)0 .. 20,0000%00:00 (00:00)EarlgreyEarlgrey
170 A Winding Path Aug 26, 2021 $7.99N/A (N/A)0 .. 20,0000%00:00 (00:00)Three Eyed GamesThree Eyed Games
171 VR Pirates of the Caribbean Life Experience Aug 25, 2021 $4.99N/A (N/A)0 .. 20,0000%00:00 (00:00)William at OxfordWilliam at Oxford
172 Hidden Shapes Black Skull - Jigsaw Puzzle Game Aug 11, 2021 $1.09N/A (N/A)0 .. 20,0000%00:00 (00:00)YAW StudiosYAW Studios
173 Seafarers Aug 1, 2021 $4.99N/A (N/A)20,000 .. 50,0000%00:00 (00:00)Egghead Interactive LLC.Egghead Interactive LLC.
174 Historic Fighters Jul 30, 2021 $4.99N/A (N/A)100,000 .. 200,0000%00:00 (00:00)QVIK GAMEZQVIK GAMEZ
175 Furious Seas Jul 18, 2021 $19.99N/A (N/A)0 .. 20,0000%00:00 (00:00)Future ImmersiveFuture Immersive
176 Pugmire: Treasure of the Sea Dogs Jul 15, 2021 $3.99N/A (N/A)0 .. 20,0000%00:00 (00:00)Choice of GamesChoice of Games
177 Walkabout Mini Golf VR Jul 15, 2021 $14.99N/A (N/A)20,000 .. 50,0000%00:00 (00:00)Mighty CoconutMighty Coconut
178 Salt and Sails Jul 1, 2021 $0.99N/A (N/A)0 .. 20,0000%00:00 (00:00)DiaMMaxPiece Of Voxel
179 Antiprism Jun 21, 2021 $17.99N/A (N/A)0 .. 20,0000%00:00 (00:00)Zero FunZero Fun
180 Super Sunny Island Jun 17, 2021 $4.99N/A (N/A)0 .. 20,0000%00:00 (00:00)lightUPlightUP
181 Build Em' Faster Jun 7, 2021 $5.99N/A (N/A)0 .. 20,0000%00:00 (00:00)CrooLabCrooLab
182 Loot Slider Jun 1, 2021 $7.99N/A (N/A)0 .. 20,0000%00:00 (00:00)Retrofied GamesRetrofied Games
183 Girls' civilization 2 Jun 1, 2021 $12.99N/A (N/A)0 .. 20,0000%00:00 (00:00)MoondolinoMoondolino
184 I Am the Captain Now May 27, 2021 $8.99N/A (N/A)0 .. 20,0000%00:00 (00:00)North Lake GamesNorth Lake Games
185 King of Seas May 25, 2021 $24.99N/A (N/A)20,000 .. 50,0000%00:00 (00:00)3DCloudsTeam17
186 Crafty May 23, 2021 $18.99N/A (N/A)0 .. 20,0000%00:00 (00:00)Wonder FactoryWonder Factory
187 Fish Person Shooter May 20, 2021 $12.99N/A (N/A)0 .. 20,0000%00:00 (00:00)8AH8AH
188 BARBAROS May 5, 2021 $10.99N/A (N/A)0 .. 20,0000%00:00 (00:00)Indie DeveloperIndie Developer
189 Golden Force Apr 22, 2021 $14.99N/A (N/A)0 .. 20,0000%00:00 (00:00)Storybird StudioNo Gravity Games
190 Country Discoverer Apr 16, 2021 $7.99N/A (N/A)0 .. 20,0000%00:00 (00:00)goatrope gamesgoatrope games
191 Lair Hockey Apr 12, 2021 $9.99N/A (N/A)0 .. 20,0000%00:00 (00:00)Never Written GamesNever Written Games
192 Cosmic Tank Apr 7, 2021 $4.99N/A (N/A)0 .. 20,0000%00:00 (00:00)Game MastermindsGame Masterminds
193 Shell Shuffle Apr 5, 2021 $9.99N/A (N/A)20,000 .. 50,0000%00:00 (00:00)Victorian ClambakeVictorian Clambake
194 Cutthroat Cove Mar 30, 2021 $10.99N/A (N/A)0 .. 20,0000%00:00 (00:00)Wicked GamesWicked Games
195 Pirate Story Mar 18, 2021 $1.99N/A (N/A)0 .. 20,0000%00:00 (00:00)Luci EntertainmentLuci Entertainment
196 boom faster Mar 15, 2021 $0.99N/A (N/A)0 .. 20,0000%00:00 (00:00)Crocodile and cactusCrocodile and cactus
197 Pirate Island Mar 13, 2021 $2.99N/A (N/A)0 .. 20,0000%00:00 (00:00)ImperiumGameImperiumGame
198 PIRATECRAFT Mar 12, 2021 $0.99N/A (N/A)0 .. 20,0000%00:00 (00:00)Game for gamesGame for games
199 Duel on Board Mar 4, 2021 $7.99N/A (N/A)0 .. 20,0000%00:00 (00:00)rebel rabbitindienova
200 Merchants of the Caribbean Mar 3, 2021 $6.99N/A (N/A)0 .. 20,0000%00:00 (00:00)GameOn ProductionAlawar Entertainment
201 Silent Sector Feb 17, 2021 $14.99N/A (N/A)0 .. 20,0000%00:00 (00:00)Rake in GrassRake in Grass
202 Pirate of Madagascar Island Feb 15, 2021 $4.99N/A (N/A)0 .. 20,0000%00:00 (00:00)Pranay MundaPranay Munda
203 Captains & Dungeons Feb 14, 2021 $4.99N/A (N/A)0 .. 20,0000%00:00 (00:00)Liprix GamesLiprix Games
204 Endless Voyage / 无尽航线 Jan 7, 2021 $12.74N/A (N/A)20,000 .. 50,0000%00:00 (00:00)Dalaran Game StudioKuYou Games
205 Timewalk Tower Defense Jan 1, 2021 FreeN/A (N/A)50,000 .. 100,0000%00:00 (00:00)Maxeymus GamesMaxeymus Games
206 Pinball Dec 29, 2020 $9.99N/A (N/A)0 .. 20,0000%00:00 (00:00)HubelHubel
207 Captain Pegleg Dec 27, 2020 $9.99N/A (N/A)0 .. 20,0000%00:00 (00:00)xeamxeam
208 Sink Again Dec 17, 2020 $2.49N/A (N/A)20,000 .. 50,0000%00:00 (00:00)FlatcoonFlatcoon
209 Skycadia Dec 7, 2020 $9.99N/A (N/A)0 .. 20,0000%00:00 (00:00)Studio Nisse LLCStudio Nisse LLC
210 Frontiers Reach Nov 30, 2020 $19.99N/A (N/A)0 .. 20,0000%00:00 (00:00)Blind Alien ProductionsBlind Alien Productions
211 StoneTide: Age of Pirates Nov 27, 2020 $9.99N/A (N/A)0 .. 20,0000%00:00 (00:00)StoneTide EntertainmentStoneTide Entertainment
212 Captain Sabertooth and the Magic Diamond Nov 20, 2020 $34.99N/A (N/A)0 .. 20,0000%00:00 (00:00)Ravn StudioZordix Publishing
213 Pocket Penguin ( ポケットペンギン): A Game Boy Style Adventure Nov 15, 2020 $5.99N/A (N/A)0 .. 20,0000%00:00 (00:00)Dog Biscuit StudiosDog Biscuit Studios
214 The Falconeer Nov 10, 2020 $19.99N/A (N/A)50,000 .. 100,0000%00:00 (00:00)Tomas SalaWired Productions
215 Be a Pirate Nov 9, 2020 $9.99N/A (N/A)0 .. 20,0000%00:00 (00:00)AmfichPiece Of Voxel
216 Blazing Sails Nov 5, 2020 $10.49N/A (N/A)100,000 .. 200,0000%00:00 (00:00)Get Up GamesIceberg Interactive
217 Out of Reach: Treasure Royale Oct 14, 2020 $14.99N/A (N/A)0 .. 20,0000%00:00 (00:00)Space Boat StudiosPlayWay S.A.
218 A pirate quartermaster Oct 2, 2020 $17.99N/A (N/A)0 .. 20,0000%00:00 (00:00)Ivan ArmandyIvan Armandy
219 Path to Prosperity Sep 18, 2020 $14.99N/A (N/A)0 .. 20,0000%00:00 (00:00)Essence GamesEssence Games
220 Color Security Sep 6, 2020 $4.99N/A (N/A)0 .. 20,0000%00:00 (00:00)TposeSoftwareTposeSoftware
221 Space Bar at the End of the Galaxy Aug 21, 2020 $4.99N/A (N/A)0 .. 20,0000%00:00 (00:00)Little Black Book EntertainmentLittle Black Book Entertainment
222 Poly Pirates Sep 7, 2020 $4.99N/A (N/A)0 .. 20,0000%00:00 (00:00)Daniel CrandallShroud Studios
223 Aye Aye, Captain Aug 4, 2020 $9.99N/A (N/A)0 .. 20,0000%00:00 (00:00)North State GamesNorth State Games
224 Magic Archers Jul 26, 2020 $7.99N/A (N/A)0 .. 20,0000%00:00 (00:00)Village People GamesVillage People Games
225 My Sail And My Sea Jun 30, 2020 $2.99N/A (N/A)0 .. 20,0000%00:00 (00:00)心田游戏(Heart Field Games)心田游戏(Heart Field Games)
226 Cannon Father Jun 23, 2020 $5.99N/A (N/A)0 .. 20,0000%00:00 (00:00)Two Scoop StudioTwo Scoop Studio
227 Takelshin Jun 19, 2020 $4.99N/A (N/A)0 .. 20,0000%00:00 (00:00)MINBEKKERMINBEKKER
228 Sea of Thieves Jun 3, 2020 $39.99N/A (N/A)2,000,000 .. 5,000,0004.63%30:40 (03:49)Rare LtdXbox Game Studios
229 Rum & Gun May 1, 2020 $4.99N/A (N/A)0 .. 20,0000%00:00 (00:00)BoringtonBorington
230 PiraCrash! Apr 29, 2020 $4.99N/A (N/A)0 .. 20,0000%00:00 (00:00)MadMozerMadMozer
231 Pirates? Pirates! Mar 30, 2020 $0.99N/A (N/A)0 .. 20,0000%00:00 (00:00)Amrita StudioAmrita Studio
232 ONE PIECE: PIRATE WARRIORS 4 Mar 26, 2020 $59.99N/A (N/A)200,000 .. 500,0000%00:00 (00:00)Koei TecmoBANDAI NAMCO Entertainment
233 Coffin Rot Brewing Co. Mar 13, 2020 $9.99N/A (N/A)0 .. 20,0000%00:00 (00:00)Nooner Bear Studio LLCClique Games
234 Horizon's Gate Mar 9, 2020 $19.99N/A (N/A)50,000 .. 100,0000%00:00 (00:00)Rad CodexRad Codex
235 Blackwake Feb 19, 2020 $4.99N/A (N/A)200,000 .. 500,0000.68%02:10 (00:43)Mastfire Studios Pty LtdMastfire Studios Pty Ltd
236 Void Destroyer 2 Feb 6, 2020 $19.99N/A (N/A)20,000 .. 50,0000%00:00 (00:00)Iteration 11Iteration 11
237 P1R4T3S Jan 31, 2020 $9.99N/A (N/A)0 .. 20,0000%00:00 (00:00)LLC Blini GamesLLC Blini Games
238 A Percent of a Pirate Jan 17, 2020 $0.99N/A (N/A)20,000 .. 50,0000%00:00 (00:00)LuminarkLuminark
239 Sea King Dec 24, 2019 $4.99N/A (N/A)0 .. 20,0000%00:00 (00:00)Interactive StoneInteractive Stone
240 SugarMill Dec 19, 2019 $19.99N/A (N/A)0 .. 20,0000%00:00 (00:00)Aatlantis CodeAatlantis Code
241 Uniseas Feb 23, 2020 $2.99N/A (N/A)0 .. 20,0000%00:00 (00:00)Sokpop CollectiveSokpop Collective
242 XO Dec 2, 2019 $19.99N/A (N/A)0 .. 20,0000%00:00 (00:00)Jumpdrive StudiosJumpdrive Studios
243 Of Ships & Scoundrels Nov 14, 2019 $14.99N/A (N/A)0 .. 20,0000%00:00 (00:00)Korion GamesKorion Games
244 HAM-MASTER Nov 8, 2019 $1.99N/A (N/A)0 .. 20,0000%00:00 (00:00)Maick PaimPequi studios
245 Feral Blue Oct 22, 2019 $19.99N/A (N/A)0 .. 20,0000%00:00 (00:00)Snowbird GamesSnowbird Games
246 Abandon Ship Oct 22, 2019 $24.99N/A (N/A)50,000 .. 100,0000%00:00 (00:00)Fireblade SoftwareFireblade Software
247 Mutiny Island Oct 18, 2019 $7.99N/A (N/A)20,000 .. 50,0000%00:00 (00:00)ElushisElushis Music & Gaming
248 Seacurity Breach Sep 20, 2019 $9.99N/A (N/A)0 .. 20,0000%00:00 (00:00)SoaphogSoaphog
249 Blackbeard the Cursed Jungle Sep 18, 2019 $0.99N/A (N/A)0 .. 20,0000%00:00 (00:00)Boogygames StudiosBoogygames Studios
250 Buoyancy Aug 30, 2019 $12.99N/A (N/A)20,000 .. 50,0000%00:00 (00:00)Devs on a BoatDevs on a Boat
251 Uncharted Tides: Port Royal Aug 29, 2019 $14.99N/A (N/A)0 .. 20,0000%00:00 (00:00)Cordelia GamesArtifex Mundi
252 Pirates Are BLANKing Awesome Jul 17, 2019 $1.99N/A (N/A)0 .. 20,0000%00:00 (00:00)Poorwill GamesPoorwill Games
253 Naval Action Jun 13, 2019 $19.99N/A (N/A)200,000 .. 500,0000%00:00 (00:00)Game-LabsGame-Labs
254 Giant Life Jun 7, 2019 $9.99N/A (N/A)0 .. 20,0000%00:00 (00:00)PatagoniartPatagoniart
255 Black Baron May 29, 2019 $7.69N/A (N/A)0 .. 20,0000%00:00 (00:00)toR StudiotoR Studio
256 Sail and Sacrifice May 23, 2019 $19.99N/A (N/A)0 .. 20,0000%00:00 (00:00)CAGE StudiosCAGE Studios
257 Ferret Scoundrels May 9, 2019 $19.99N/A (N/A)0 .. 20,0000%00:00 (00:00)Cryogenic EntertainmentCryogenic Entertainment
Overview

Pirates

Games with this tag: 257
Average userscore: N/A%
Average metascore: 75.08%
Average playtime: 05:51
Total copies owned: 33,617,000
Average price: $11.64
Help

Owners: Estimated number of people owning this game. The number might be way too small for new releases and sometimes way too big for games that had free weekend event recently. Read more on About page.

Playtime: Average hours played in total per person that have actually launched this game since March 2009. This time is calculated for the whole lifetime, not for the particular year.

Average score: Average users and metacritic score for all games with this score assigned.

Average playtime: Average lifetime playtime for all games where this data is available.

Games in this genre: Self-explaining - number of games with this tag. Only inculdes games with sales data available.

Total copies owned: Refers to total copies of games with this tag acquired by users for the lifetime. Includes copies sold, downloaded for free and given out.

This number might be too small for recently released games or too big for games that had a free weekend in the last couple of months.

Graphs

Login required.

Please register or log in to see this information.

Login required.

Please register or log in to see this information.